Temperature
7 6 6 6 7 7 7 7 7 8 9 8 8 9 10 11 11 11 12 13 14 15 17 17 18 18 18 18 18 19 18 18 17 16 16 15 14 14 13 13 13 12 12 12
6 6 6 6 6 7 6 6 6 7 8 9 8 9 10 10 10 11 12 13 14 15 16 17 17 18 18 18 18 18 17 17 16 16 15 15 14 13 13 13 12 12 11 11
5 6 7 6 6 6 6 6 6 6 7 7 7 8 9 9 11 12 12 13 14 15 16 16 17 17 17 17 17 17 17 16 15 15 14 14 13 13 12 12 12 11 11 11
5 6 6 6 5 5 6 6 6 6 6 6 7 7 8 9 9 10 11 13 13 15 16 16 17 17 17 17 17 16 16 15 15 14 14 14 13 13 12 12 11 11 11 11
6 6 5 6 6 6 6 7 7 6 6 5 6 6 7 8 9 10 10 12 14 15 16 16 17 17 17 16 16 16 15 14 14 13 13 13 13 13 12 11 11 11 10 10
6 6 6 6 6 7 7 7 6 6 5 6 6 6 7 7 9 10 10 12 14 15 16 16 17 17 16 15 15 15 14 13 13 12 13 13 13 12 12 11 11 10 10 9
6 6 6 6 6 6 6 5 6 5 6 6 6 6 8 8 9 10 11 12 14 15 15 15 15 16 16 15 14 14 13 13 12 12 12 12 12 12 12 11 10 10 9 9
5 5 6 6 6 5 5 5 5 5 5 5 6 7 8 9 10 11 13 13 14 15 15 15 15 15 15 15 14 13 12 12 12 12 12 11 11 11 11 10 10 9 9 8
5 5 6 6 6 6 5 5 6 6 5 5 6 6 7 9 9 10 10 12 13 14 14 14 14 14 14 14 13 13 12 11 11 11 11 11 10 10 10 9 9 8 8 7
5 4 5 6 5 6 6 6 5 5 6 6 6 6 8 9 9 10 10 10 12 12 12 12 12 12 12 13 12 11 11 11 11 10 10 10 10 10 9 9 8 8 7 7
5 4 5 5 5 5 5 5 5 6 5 5 5 7 9 9 10 10 10 11 11 11 11 11 10 10 11 11 11 11 11 10 10 10 10 10 9 9 8 8 7 7 6 6
5 5 5 5 6 7 6 6 6 6 6 5 5 8 11 9 9 9 9 10 10 10 9 8 8 8 9 10 10 10 10 10 10 10 9 9 9 8 8 7 7 6 6 5
5 5 5 5 6 6 5 6 6 6 6 5 5 8 10 10 10 9 8 8 8 7 6 6 6 7 9 10 10 10 9 10 9 9 9 9 8 7 7 6 6 5 5 4
7 5 5 6 7 6 5 6 6 5 6 6 6 8 9 10 9 9 8 7 6 6 5 5 6 7 9 9 9 9 9 9 9 9 8 8 7 7 6 6 5 5 4 3
7 6 6 6 7 6 6 6 6 6 6 6 7 8 9 10 9 8 8 7 6 5 4 5 6 7 8 9 9 8 8 8 8 8 7 7 6 6 5 5 4 4 3 2
6 6 6 7 7 7 7 7 7 6 7 7 7 8 9 9 8 8 7 6 6 5 4 5 6 7 8 8 8 8 8 8 7 7 7 6 6 5 5 4 4 3 2 2
6 6 6 7 8 7 8 8 8 7 7 7 7 8 9 8 8 8 7 7 6 5 5 5 6 8 8 8 8 8 8 7 7 6 6 5 5 4 4 3 3 2 1 1
7 6 6 7 8 9 9 9 9 8 9 8 8 8 9 8 8 8 8 7 7 6 5 6 7 7 8 8 8 7 7 7 6 6 5 5 4 3 3 2 2 1 1 0
7 7 7 7 8 9 10 9 9 9 9 9 9 9 8 8 8 8 8 8 8 7 7 7 8 8 8 8 7 7 6 6 5 5 4 4 3 3 2 1 1 0 0 -0
7 7 7 8 8 9 10 10 9 9 9 10 9 9 9 8 9 8 8 9 8 8 8 8 8 8 8 7 7 6 6 5 5 4 3 3 2 2 1 0 0 -0 -0 -1
7 7 7 8 8 9 10 9 9 10 10 9 9 9 9 8 7 6 8 9 9 8 8 8 7 7 7 7 6 6 5 4 4 3 2 2 1 1 0 0 -0 -1 -1 -1
7 7 7 7 8 9 9 9 9 9 9 8 8 8 8 6 5 6 7 8 8 8 7 7 7 6 6 6 6 5 4 3 3 2 2 1 1 0 -0 -0 -1 -1 -2 -2
7 7 7 7 8 8 8 8 9 8 8 7 6 7 7 5 5 5 6 7 7 7 7 7 7 6 5 5 5 4 3 2 2 1 1 0 0 -0 -1 -1 -1 -2 -2 -3
7 7 7 7 7 8 9 9 8 8 7 7 6 6 7 6 5 5 5 6 6 6 6 6 6 5 4 4 3 3 2 2 1 1 0 -0 -1 -1 -1 -2 -2 -2 -3 -4
8 7 7 7 8 8 9 8 8 8 7 6 6 6 7 7 5 5 5 5 6 6 5 5 5 4 3 2 2 2 1 1 0 0 -0 -1 -1 -2 -2 -2 -3 -3 -4 -5
6 7 8 9 9 8 8 7 8 8 7 7 7 5 6 7 6 6 6 6 6 5 5 4 4 3 2 1 1 1 0 -0 -0 -1 -1 -1 -2 -2 -3 -3 -3 -4 -5 -6
Wind_Speed
3 3 7 9 11 7 2 5 8 7 7 7 14 21 16 11 13 13 13 13 13 13 12 8 7 6 6 5 6 8 10 11 13 11 10 9 8 8 7 7 11 13 14 14
2 9 10 6 5 7 8 12 13 11 8 10 15 26 20 15 16 18 18 18 15 13 10 8 7 7 7 6 7 8 11 11 10 9 7 6 7 7 7 7 10 12 13 14
10 3 5 8 7 8 10 11 10 9 8 8 12 19 16 13 18 20 19 18 16 16 15 11 9 9 8 8 9 9 10 10 10 11 12 12 8 6 6 7 7 8 13 14
9 9 6 6 8 10 11 8 10 10 8 7 5 10 7 8 11 14 14 14 15 15 14 12 11 10 10 9 8 9 10 11 12 13 16 18 11 8 6 7 8 8 11 13
7 6 9 12 11 9 7 5 8 8 8 11 8 11 12 7 11 11 12 13 15 15 15 14 14 13 10 9 9 10 11 11 11 10 14 15 12 10 11 10 11 9 8 10
11 6 6 8 7 10 5 2 5 7 6 13 11 11 13 8 10 10 12 13 15 15 14 13 11 11 9 9 10 11 12 11 9 10 11 15 18 18 15 12 10 8 6 6
9 12 9 5 4 6 7 6 4 5 8 9 9 11 14 8 10 13 15 15 14 13 11 12 14 15 15 14 13 12 14 12 10 11 11 14 17 17 16 13 10 9 6 5
5 7 10 10 11 9 12 11 9 7 6 5 6 13 11 10 12 14 16 14 12 10 10 13 16 17 17 17 16 15 14 13 12 12 12 12 13 11 10 10 9 8 6 6
6 6 4 8 7 9 7 12 9 7 6 7 8 9 10 8 11 13 14 14 13 10 11 13 15 16 17 17 16 16 16 14 13 13 14 13 11 12 12 10 9 8 7 6
6 6 6 5 7 10 8 6 6 9 7 10 9 10 11 9 7 9 12 14 13 10 11 13 14 14 14 14 14 14 15 15 14 14 13 12 11 12 12 11 10 8 7 7
7 6 5 5 12 14 12 10 10 8 6 7 8 10 7 7 5 8 11 12 11 11 14 15 13 13 13 14 14 15 15 15 14 13 13 14 12 12 11 10 9 8 7 7
9 6 8 11 11 12 15 16 16 11 10 7 7 14 5 6 6 8 10 8 5 8 11 13 14 14 15 15 15 15 14 15 14 13 14 14 12 12 11 10 8 8 8 6
10 6 6 6 4 8 11 18 20 16 9 9 11 13 3 5 9 8 7 2 5 10 12 13 13 14 14 14 14 14 14 14 13 14 15 13 12 11 10 9 8 8 7 6
10 8 11 12 9 6 9 15 19 19 12 13 18 23 20 14 13 10 5 3 8 11 13 13 12 12 13 13 14 14 13 13 14 14 14 13 11 10 9 8 8 7 7 6
7 8 13 19 21 18 19 19 20 24 22 15 15 20 23 13 11 8 2 6 10 12 13 13 13 12 13 14 13 13 13 12 13 14 13 11 10 9 9 8 8 7 6 5
7 7 9 17 19 20 22 21 21 22 21 22 20 21 14 8 7 5 3 9 12 13 13 13 13 14 14 14 15 14 13 12 13 13 12 11 10 9 8 8 7 6 5 4
6 5 5 9 12 11 9 11 14 13 13 14 19 17 11 12 10 6 6 10 12 13 13 14 14 13 13 14 15 15 13 12 12 12 11 10 10 9 8 7 7 5 4 3
7 5 4 7 9 5 5 6 7 10 13 13 12 11 11 10 6 4 4 8 10 12 13 13 13 13 12 12 13 13 13 12 12 12 11 9 9 9 7 7 6 4 2 2
11 6 4 4 6 7 6 3 2 4 5 10 14 13 10 4 2 3 0 5 8 10 11 12 12 14 14 14 15 15 13 12 12 11 10 9 9 8 7 6 4 3 2 2
6 7 5 4 5 4 5 4 2 3 4 6 12 13 8 2 1 1 3 6 10 12 13 14 14 15 14 13 14 15 13 12 11 10 9 8 8 8 7 5 3 2 1 2
4 5 6 5 4 6 7 5 3 2 4 3 7 9 6 4 1 3 6 9 11 13 15 15 15 14 13 14 15 15 13 11 10 11 10 9 8 7 6 4 3 2 2 3
7 5 5 4 4 6 5 3 1 4 4 3 2 3 6 8 8 8 10 12 14 15 15 15 15 13 11 12 15 15 12 10 11 11 10 9 7 6 5 5 3 2 3 4
6 7 5 7 7 5 3 3 4 3 3 3 1 5 12 10 8 9 10 12 13 14 14 13 16 15 10 9 13 16 10 11 12 11 9 8 7 6 4 4 3 2 3 3
4 4 3 5 7 5 4 2 3 4 4 5 7 9 9 13 13 13 12 12 12 13 13 14 16 15 12 10 12 13 12 11 12 10 8 6 6 5 4 3 2 2 3 4
5 5 3 5 7 5 2 2 4 6 9 11 12 11 12 17 15 14 13 12 12 12 11 12 14 15 14 13 13 11 10 11 11 9 7 6 5 4 3 3 2 3 4 5
5 7 6 6 5 4 1 4 6 8 9 11 14 14 11 12 16 15 13 12 12 13 13 14 15 15 13 13 12 9 8 9 10 7 5 4 3 2 2 3 4 6 7 11
Wind_Direction
153 175 209 207 210 223 250 266 272 272 304 308 279 280 277 269 268 267 265 259 253 251 253 247 226 196 176 170 156 147 143 144 143 141 136 128 117 109 96 93 99 105 107 105
195 237 228 216 216 234 250 266 273 280 272 276 280 280 275 253 255 255 256 256 254 252 253 231 202 184 183 177 163 151 151 152 150 144 128 118 117 106 96 95 93 99 103 101
210 247 205 200 208 225 238 244 254 265 304 278 286 285 263 240 236 244 245 244 244 242 242 231 205 197 187 183 172 160 155 147 137 130 121 116 107 104 102 100 93 90 97 96
240 239 251 229 219 212 250 228 236 254 266 272 248 287 266 234 246 247 248 242 238 235 231 221 199 193 190 183 163 150 146 142 142 142 143 143 143 136 128 125 113 98 93 94
229 209 215 230 226 198 224 219 228 239 247 264 238 266 275 207 252 254 248 242 238 232 223 212 197 191 176 159 151 144 138 140 145 146 147 138 127 121 124 120 111 100 87 87
240 216 210 220 223 202 199 256 270 242 244 259 223 225 272 203 232 243 246 241 237 231 220 205 182 161 151 146 143 143 141 140 138 136 138 137 134 135 134 128 119 107 95 84
249 232 215 187 201 189 185 210 246 234 227 249 180 213 256 218 213 225 242 246 240 230 209 184 167 165 161 158 154 150 146 140 135 132 130 136 137 138 137 134 128 121 108 93
258 256 207 195 203 195 194 195 213 230 234 268 217 234 255 237 229 234 241 246 242 224 197 183 177 172 167 163 157 153 148 141 134 130 125 124 125 124 124 122 122 116 111 108
236 264 245 208 188 178 188 211 218 250 255 265 251 262 286 252 248 249 253 253 245 220 193 182 175 170 166 163 159 153 146 138 133 129 125 120 117 119 119 114 108 108 108 108
205 262 259 222 180 212 209 175 184 216 240 248 255 254 253 262 269 273 269 259 247 214 184 174 171 166 160 153 143 139 140 136 131 128 128 123 116 115 117 114 110 107 104 101
190 233 266 200 203 205 199 209 215 225 220 227 259 258 223 231 260 296 293 273 241 197 178 170 161 149 141 137 138 136 134 131 129 125 121 119 116 114 111 110 110 109 104 101
195 232 254 236 224 207 209 215 213 226 230 222 247 263 216 237 302 326 313 291 222 172 157 150 144 140 141 140 138 135 135 131 128 124 120 118 117 114 111 110 110 108 104 98
175 217 267 284 238 206 226 226 223 229 238 233 241 263 209 268 310 330 319 294 142 137 135 135 139 143 143 140 136 134 132 129 125 123 120 119 117 116 115 114 112 108 105 98
183 218 229 246 252 229 235 232 224 225 235 241 241 261 278 295 305 316 316 157 143 144 143 143 143 140 138 135 133 131 127 127 126 123 122 122 121 120 119 116 112 109 107 100
211 250 250 259 265 264 259 251 234 228 231 240 253 261 273 285 293 297 258 160 153 155 154 152 147 141 136 132 129 129 127 126 126 123 122 122 120 117 115 113 110 105 100 95
207 260 273 275 271 268 265 257 243 235 234 239 255 267 272 287 294 285 207 174 171 169 163 154 147 144 143 140 137 133 130 128 126 124 124 125 121 117 115 113 109 103 94 81
210 245 278 284 292 285 270 255 236 225 220 225 241 254 275 287 282 258 209 183 180 173 165 159 155 151 147 144 141 137 133 128 123 124 126 126 122 117 115 113 105 98 91 65
221 238 267 291 305 298 298 290 230 225 228 218 234 258 265 268 282 274 207 179 170 165 160 153 146 139 134 130 129 126 127 126 124 125 125 124 120 116 112 105 99 92 83 40
207 216 262 286 301 296 307 310 196 196 243 219 231 248 256 266 314 322 69 158 154 150 145 141 137 135 133 134 134 129 125 124 124 126 125 123 120 117 112 104 97 88 57 9
186 196 239 289 308 316 312 314 162 139 302 231 219 234 237 211 297 345 45 109 121 123 127 127 127 128 130 134 134 129 129 128 128 127 121 115 114 115 112 108 99 77 43 336
167 197 226 250 274 282 291 304 125 106 295 305 219 224 196 178 177 68 67 83 102 111 117 121 123 127 132 135 131 127 127 126 123 116 110 105 106 110 110 102 89 63 17 346
185 189 208 198 237 274 320 18 150 268 305 330 278 206 145 115 90 79 82 92 101 107 111 116 116 115 118 126 126 121 118 116 113 109 106 103 100 100 101 93 76 50 15 349
202 198 198 202 225 260 288 276 296 301 308 343 53 109 123 114 104 99 93 95 98 104 106 109 114 111 101 105 120 119 117 116 111 106 105 104 97 84 82 76 47 17 0 338
252 191 202 262 269 271 281 311 16 24 49 64 90 106 113 116 115 108 103 100 100 101 106 113 112 109 99 91 99 112 115 112 110 109 106 101 95 81 60 43 16 355 329 314
235 181 214 263 275 291 313 73 85 81 83 84 82 88 109 116 113 111 108 105 106 106 105 107 109 107 103 100 99 103 109 111 107 105 101 93 83 75 40 10 331 317 279 279
201 184 187 228 243 207 203 113 112 105 99 104 105 95 87 107 114 111 105 105 107 105 104 103 103 105 104 102 98 94 100 108 110 105 95 86 75 52 25 351 328 321 320 323
Height
1477 1481 1480 1480 1481 1482 1483 1483 1482 1479 1476 1476 1468 1458 1454 1453 1451 1448 1446 1445 1445 1446 1448 1451 1452 1453 1454 1456 1458 1460 1462 1464 1467 1470 1474 1479 1484 1489 1492 1495 1498 1500 1502 1503
1478 1478 1477 1477 1479 1481 1482 1483 1482 1479 1476 1473 1465 1451 1446 1445 1443 1441 1439 1438 1438 1439 1441 1444 1446 1448 1450 1451 1453 1455 1457 1460 1462 1466 1470 1475 1480 1485 1489 1492 1495 1497 1499 1501
1475 1474 1471 1475 1479 1481 1480 1481 1481 1480 1476 1471 1467 1444 1434 1430 1429 1428 1428 1428 1430 1432 1434 1437 1440 1442 1445 1447 1449 1451 1453 1456 1458 1462 1467 1472 1478 1482 1486 1489 1492 1495 1497 1499
1472 1471 1472 1474 1476 1478 1477 1475 1476 1476 1478 1473 1468 1453 1429 1425 1423 1420 1420 1420 1420 1423 1426 1429 1432 1436 1439 1442 1445 1447 1450 1452 1455 1459 1464 1469 1474 1478 1483 1487 1490 1493 1495 1497
1466 1466 1468 1470 1470 1472 1473 1471 1473 1473 1474 1472 1466 1463 1425 1423 1419 1416 1414 1413 1412 1414 1416 1419 1424 1429 1433 1437 1440 1443 1446 1449 1453 1458 1463 1468 1472 1476 1480 1484 1488 1491 1493 1495
1462 1462 1463 1463 1464 1466 1469 1471 1471 1470 1471 1463 1454 1460 1424 1420 1412 1410 1407 1404 1403 1404 1407 1410 1415 1421 1426 1431 1435 1439 1442 1446 1450 1456 1461 1466 1470 1474 1478 1482 1486 1489 1491 1492
1457 1456 1457 1459 1462 1464 1467 1472 1471 1468 1461 1452 1444 1442 1415 1407 1403 1400 1398 1396 1395 1397 1399 1402 1406 1412 1418 1424 1430 1435 1439 1443 1448 1454 1459 1464 1469 1473 1477 1481 1485 1487 1489 1490
1456 1454 1451 1451 1453 1457 1460 1463 1465 1465 1459 1452 1441 1428 1406 1399 1395 1392 1390 1389 1389 1390 1393 1395 1399 1405 1411 1418 1424 1430 1435 1441 1446 1452 1458 1463 1468 1472 1476 1480 1483 1486 1487 1488
1453 1452 1446 1446 1447 1452 1455 1455 1453 1457 1451 1448 1435 1418 1403 1393 1390 1388 1386 1384 1383 1384 1387 1390 1394 1399 1406 1413 1419 1426 1432 1438 1444 1450 1456 1461 1467 1471 1475 1479 1481 1484 1485 1486
1450 1452 1446 1442 1446 1446 1447 1447 1451 1450 1443 1437 1427 1417 1400 1390 1388 1385 1382 1378 1376 1378 1381 1384 1389 1394 1401 1409 1416 1424 1431 1437 1443 1449 1455 1460 1466 1470 1474 1477 1480 1482 1483 1484
1447 1450 1444 1441 1439 1436 1442 1443 1441 1438 1436 1435 1425 1402 1383 1383 1382 1380 1376 1372 1369 1371 1374 1379 1384 1391 1398 1406 1414 1422 1429 1435 1441 1447 1454 1459 1464 1469 1473 1476 1478 1480 1481 1482
1442 1444 1437 1431 1424 1424 1427 1427 1430 1428 1425 1424 1420 1393 1375 1377 1375 1374 1371 1367 1366 1367 1371 1376 1382 1388 1396 1404 1412 1420 1428 1434 1440 1447 1453 1458 1463 1468 1471 1474 1476 1478 1479 1479
1437 1439 1433 1426 1423 1423 1422 1418 1418 1418 1416 1414 1411 1386 1370 1372 1371 1371 1369 1366 1366 1368 1371 1376 1382 1388 1396 1404 1412 1420 1427 1434 1440 1447 1452 1457 1462 1466 1470 1473 1474 1476 1476 1476
1430 1430 1428 1421 1410 1412 1411 1408 1408 1411 1405 1401 1394 1379 1370 1372 1371 1370 1368 1367 1367 1370 1373 1377 1383 1389 1396 1404 1412 1419 1427 1434 1440 1446 1452 1457 1461 1465 1468 1471 1472 1473 1474 1474
1425 1420 1416 1410 1405 1404 1400 1397 1396 1397 1394 1393 1382 1377 1368 1369 1369 1367 1366 1366 1368 1372 1375 1378 1383 1389 1396 1404 1413 1420 1427 1434 1440 1446 1452 1456 1460 1464 1467 1469 1470 1471 1471 1471
1419 1414 1409 1400 1394 1390 1386 1382 1382 1383 1384 1383 1380 1374 1366 1367 1367 1365 1365 1366 1368 1372 1375 1380 1385 1391 1398 1405 1413 1420 1427 1434 1441 1446 1451 1456 1459 1462 1465 1467 1468 1468 1468 1468
1413 1411 1406 1393 1384 1382 1374 1368 1368 1370 1371 1374 1374 1367 1365 1365 1364 1364 1363 1365 1367 1372 1376 1380 1386 1392 1399 1407 1414 1421 1428 1435 1441 1446 1451 1455 1458 1461 1463 1465 1466 1466 1466 1465
1407 1407 1404 1394 1385 1373 1369 1361 1361 1362 1363 1366 1365 1363 1363 1362 1362 1362 1362 1364 1367 1372 1377 1382 1388 1395 1402 1409 1416 1423 1430 1436 1441 1446 1450 1454 1457 1459 1461 1463 1463 1464 1463 1462
1400 1402 1401 1394 1384 1374 1365 1361 1361 1362 1361 1360 1361 1361 1360 1362 1362 1361 1361 1364 1368 1372 1377 1383 1389 1396 1403 1410 1418 1424 1431 1437 1442 1446 1450 1453 1456 1458 1460 1461 1462 1461 1461 1459
1396 1398 1399 1393 1386 1377 1368 1361 1359 1363 1361 1355 1357 1358 1360 1363 1364 1364 1364 1366 1370 1375 1379 1385 1391 1398 1405 1412 1419 1425 1431 1437 1442 1446 1449 1453 1455 1457 1459 1459 1460 1459 1457 1455
1395 1396 1395 1392 1388 1379 1367 1362 1362 1366 1362 1355 1355 1355 1359 1362 1365 1366 1366 1368 1372 1377 1382 1387 1393 1400 1407 1414 1420 1426 1432 1438 1442 1446 1449 1452 1455 1456 1457 1458 1457 1456 1454 1451
1390 1392 1392 1391 1388 1381 1366 1364 1366 1363 1358 1356 1355 1355 1358 1362 1365 1367 1369 1372 1375 1380 1385 1390 1396 1402 1409 1416 1422 1428 1434 1439 1443 1446 1449 1452 1454 1455 1456 1456 1454 1452 1450 1447
1385 1384 1384 1384 1380 1370 1367 1366 1364 1361 1358 1356 1355 1355 1358 1362 1366 1370 1373 1376 1380 1384 1389 1394 1400 1406 1413 1420 1426 1430 1435 1440 1443 1447 1450 1452 1453 1454 1454 1453 1451 1449 1446 1443
1379 1378 1379 1377 1371 1367 1365 1364 1362 1360 1358 1357 1357 1358 1360 1363 1368 1373 1377 1381 1385 1389 1394 1400 1405 1410 1416 1423 1429 1433 1437 1441 1445 1448 1450 1451 1452 1452 1452 1450 1448 1446 1443 1439
1374 1375 1376 1373 1368 1365 1363 1364 1363 1362 1361 1361 1362 1364 1366 1368 1373 1377 1382 1386 1390 1395 1400 1405 1410 1414 1420 1426 1432 1436 1440 1443 1446 1448 1449 1450 1451 1450 1449 1448 1446 1442 1439 1435
1369 1370 1371 1369 1364 1364 1364 1364 1365 1365 1365 1366 1367 1370 1374 1376 1379 1383 1388 1392 1397 1401 1406 1410 1415 1419 1425 1430 1435 1439 1442 1445 1447 1448 1449 1449 1449 1448 1447 1445 1443 1439 1436 1432